QFA237 YSSY-YSCB

Flight info

Callsign QFA237
Flight time 0h 34m
Altitude 16000
Route WOL H65 LEECE
Aircraft A320/M-SDE3FGHIRWY/LB1

Departure

Time 2026-04-21 02:49
Airport Sydney Kingsford Smith International Airport (YSSY)

Arrival

Time 2026-04-21 03:23
Airport Canberra Airport (YSCB)
Time Latitude Longitude Altitude Speed Heading
2026-04-21 02:32 -33.93661 151.17885 14 ft 0 kts 91°
2026-04-21 02:38 -33.93661 151.17868 13 ft 2 kts 91°
2026-04-21 02:38 -33.93661 151.17851 13 ft 1 kts 98°
2026-04-21 02:39 -33.93656 151.17836 12 ft 2 kts 125°
2026-04-21 02:39 -33.93646 151.17822 12 ft 2 kts 149°
2026-04-21 02:39 -33.93632 151.17816 12 ft 2 kts 172°
2026-04-21 02:39 -33.93622 151.17816 12 ft 0 kts 188°
2026-04-21 02:40 -33.93624 151.17816 12 ft 2 kts 186°
2026-04-21 02:40 -33.93628 151.17815 12 ft 1 kts 187°
2026-04-21 02:40 -33.93619 151.17818 12 ft 0 kts 195°
2026-04-21 02:40 -33.93614 151.17819 12 ft 0 kts 189°
2026-04-21 02:43 -33.93616 151.17818 12 ft 0 kts 189°
2026-04-21 02:43 -33.93624 151.17816 12 ft 5 kts 189°
2026-04-21 02:43 -33.93690 151.17802 11 ft 13 kts 190°
2026-04-21 02:44 -33.93792 151.17781 9 ft 14 kts 190°
2026-04-21 02:44 -33.93827 151.17772 9 ft 7 kts 205°
2026-04-21 02:44 -33.93865 151.17680 9 ft 13 kts 253°
2026-04-21 02:44 -33.93829 151.17593 9 ft 13 kts 340°
2026-04-21 02:45 -33.93736 151.17569 9 ft 14 kts 348°
2026-04-21 02:45 -33.93638 151.17543 9 ft 14 kts 347°
2026-04-21 02:45 -33.93535 151.17516 9 ft 15 kts 348°
2026-04-21 02:45 -33.93432 151.17506 11 ft 14 kts
2026-04-21 02:46 -33.93343 151.17493 15 ft 11 kts 349°
2026-04-21 02:46 -33.93265 151.17473 17 ft 11 kts 348°
2026-04-21 02:46 -33.93191 151.17454 19 ft 11 kts 347°
2026-04-21 02:46 -33.93101 151.17430 20 ft 15 kts 348°
2026-04-21 02:47 -33.93006 151.17407 21 ft 10 kts 344°
2026-04-21 02:47 -33.92966 151.17343 21 ft 9 kts 282°
2026-04-21 02:47 -33.92963 151.17329 21 ft 0 kts 282°
2026-04-21 02:47 -33.92962 151.17320 21 ft 1 kts 282°
2026-04-21 02:48 -33.92960 151.17311 21 ft 0 kts 282°
2026-04-21 02:48 -33.92958 151.17299 21 ft 7 kts 280°
2026-04-21 02:48 -33.92968 151.17207 23 ft 11 kts 236°
2026-04-21 02:48 -33.93034 151.17188 24 ft 10 kts 171°
2026-04-21 02:49 -33.93197 151.17227 23 ft 56 kts 168°
2026-04-21 02:49 -33.93827 151.17390 11 ft 125 kts 169°
2026-04-21 02:49 -33.94847 151.17648 177 ft 163 kts 170°
2026-04-21 02:49 -33.95990 151.17836 743 ft 171 kts 178°
2026-04-21 02:50 -33.97195 151.17862 1498 ft 175 kts 180°
2026-04-21 02:50 -33.98373 151.17806 2286 ft 175 kts 182°
2026-04-21 02:50 -33.99670 151.17715 2737 ft 196 kts 182°
2026-04-21 02:50 -34.01071 151.17606 3259 ft 213 kts 182°
2026-04-21 02:51 -34.02608 151.17624 3788 ft 230 kts 173°
2026-04-21 02:51 -34.04247 151.17995 4350 ft 247 kts 166°
2026-04-21 02:51 -34.05916 151.18535 5142 ft 253 kts 165°
2026-04-21 02:51 -34.07612 151.19106 6005 ft 256 kts 164°
2026-04-21 02:52 -34.09333 151.19684 6860 ft 259 kts 164°
2026-04-21 02:52 -34.11051 151.20262 7678 ft 264 kts 165°
2026-04-21 02:52 -34.12824 151.20856 8533 ft 267 kts 165°
2026-04-21 02:52 -34.14622 151.21457 9350 ft 271 kts 165°
2026-04-21 02:53 -34.16431 151.22061 10145 ft 274 kts 165°
2026-04-21 02:53 -34.18342 151.22525 10708 ft 286 kts 179°
2026-04-21 02:53 -34.20336 151.22058 11165 ft 303 kts 203°
2026-04-21 02:53 -34.22073 151.20589 11860 ft 312 kts 225°
2026-04-21 02:54 -34.23486 151.18616 12654 ft 315 kts 227°
2026-04-21 02:54 -34.24909 151.16603 13391 ft 319 kts 227°
2026-04-21 02:54 -34.26352 151.14569 14118 ft 322 kts 227°
2026-04-21 02:54 -34.27816 151.12508 14863 ft 324 kts 227°
2026-04-21 02:55 -34.29276 151.10446 15586 ft 327 kts 227°
2026-04-21 02:55 -34.30753 151.08365 16089 ft 328 kts 227°
2026-04-21 02:55 -34.32235 151.06276 16313 ft 329 kts 226°
2026-04-21 02:55 -34.33723 151.04179 16315 ft 328 kts 227°
2026-04-21 02:56 -34.35214 151.02077 16309 ft 328 kts 227°
2026-04-21 02:56 -34.38353 150.98044 16318 ft 330 kts 220°
2026-04-21 02:56 -34.40050 150.96187 16334 ft 331 kts 220°
2026-04-21 02:57 -34.41769 150.94325 16335 ft 331 kts 220°
2026-04-21 02:57 -34.43501 150.92452 16323 ft 331 kts 220°
2026-04-21 02:57 -34.45213 150.90595 16325 ft 331 kts 220°
2026-04-21 02:57 -34.46931 150.88728 16320 ft 331 kts 220°
2026-04-21 02:58 -34.48636 150.86874 16300 ft 332 kts 220°
2026-04-21 02:58 -34.50354 150.85005 16318 ft 332 kts 220°
2026-04-21 02:58 -34.52074 150.83133 16336 ft 332 kts 220°
2026-04-21 02:58 -34.53793 150.81259 16333 ft 332 kts 220°
2026-04-21 02:59 -34.55438 150.79289 16327 ft 333 kts 225°
2026-04-21 02:59 -34.56944 150.77148 16329 ft 334 kts 229°
2026-04-21 02:59 -34.58342 150.74884 16322 ft 334 kts 231°
2026-04-21 02:59 -34.59714 150.72610 16308 ft 334 kts 231°
2026-04-21 03:00 -34.61083 150.70335 16322 ft 334 kts 231°
2026-04-21 03:00 -34.62450 150.68065 16322 ft 334 kts 231°
2026-04-21 03:00 -34.63817 150.65791 16351 ft 334 kts 231°
2026-04-21 03:00 -34.65181 150.63524 16332 ft 334 kts 231°
2026-04-21 03:01 -34.66547 150.61253 16326 ft 334 kts 231°
2026-04-21 03:01 -34.67919 150.58971 16307 ft 334 kts 231°
2026-04-21 03:01 -34.69289 150.56689 16311 ft 334 kts 231°
2026-04-21 03:01 -34.70652 150.54419 16329 ft 334 kts 231°
2026-04-21 03:02 -34.72015 150.52148 16315 ft 334 kts 231°
2026-04-21 03:02 -34.73384 150.49864 16319 ft 334 kts 231°
2026-04-21 03:02 -34.74761 150.47566 16307 ft 335 kts 231°
2026-04-21 03:02 -34.76128 150.45283 16309 ft 335 kts 231°
2026-04-21 03:03 -34.77503 150.42984 16311 ft 335 kts 231°
2026-04-21 03:03 -34.78856 150.40721 16317 ft 334 kts 231°
2026-04-21 03:03 -34.80237 150.38413 16334 ft 334 kts 231°
2026-04-21 03:03 -34.81599 150.36133 16317 ft 334 kts 231°
2026-04-21 03:04 -34.82962 150.33850 16325 ft 334 kts 231°
2026-04-21 03:04 -34.84331 150.31555 16334 ft 333 kts 231°
2026-04-21 03:04 -34.85679 150.29295 16332 ft 333 kts 231°
2026-04-21 03:04 -34.87037 150.27014 16330 ft 333 kts 231°
2026-04-21 03:05 -34.88412 150.24705 16328 ft 334 kts 231°
2026-04-21 03:05 -34.89772 150.22421 16325 ft 334 kts 231°
2026-04-21 03:05 -34.91124 150.20146 16320 ft 334 kts 231°
2026-04-21 03:05 -34.92487 150.17854 16344 ft 334 kts 231°
2026-04-21 03:06 -34.93860 150.15541 16342 ft 333 kts 231°
2026-04-21 03:06 -34.95217 150.13254 16342 ft 333 kts 231°
2026-04-21 03:06 -34.96581 150.10956 16340 ft 333 kts 231°
2026-04-21 03:06 -34.97942 150.08658 16347 ft 333 kts 231°
2026-04-21 03:07 -34.99286 150.06387 16342 ft 333 kts 231°
2026-04-21 03:07 -35.00650 150.04083 16344 ft 333 kts 231°
2026-04-21 03:07 -35.02008 150.01787 16324 ft 333 kts 231°
2026-04-21 03:07 -35.03360 149.99501 16335 ft 333 kts 231°
2026-04-21 03:08 -35.04722 149.97231 16341 ft 334 kts 230°
2026-04-21 03:08 -35.06198 149.95048 16349 ft 333 kts 226°
2026-04-21 03:08 -35.07766 149.92984 16345 ft 333 kts 224°
2026-04-21 03:08 -35.09361 149.90929 16343 ft 333 kts 224°
2026-04-21 03:09 -35.10966 149.88864 16344 ft 333 kts 224°
2026-04-21 03:09 -35.12567 149.86801 16338 ft 333 kts 224°
2026-04-21 03:09 -35.14147 149.84763 16336 ft 333 kts 224°
2026-04-21 03:09 -35.15739 149.82706 16137 ft 333 kts 224°
2026-04-21 03:10 -35.17328 149.80652 15911 ft 331 kts 224°
2026-04-21 03:10 -35.18913 149.78603 15673 ft 330 kts 224°
2026-04-21 03:10 -35.20480 149.76576 15410 ft 329 kts 224°
2026-04-21 03:10 -35.22047 149.74548 15079 ft 328 kts 224°
2026-04-21 03:11 -35.23600 149.72536 14693 ft 326 kts 224°
2026-04-21 03:11 -35.25163 149.70511 14293 ft 324 kts 224°
2026-04-21 03:11 -35.26704 149.68510 13875 ft 323 kts 224°
2026-04-21 03:11 -35.28225 149.66539 13466 ft 322 kts 225°
2026-04-21 03:12 -35.29755 149.64551 13060 ft 321 kts 225°
2026-04-21 03:12 -35.31292 149.62553 12639 ft 320 kts 225°
2026-04-21 03:12 -35.32811 149.60577 12244 ft 319 kts 225°
2026-04-21 03:12 -35.34330 149.58600 11829 ft 317 kts 225°
2026-04-21 03:13 -35.35831 149.56647 11412 ft 317 kts 225°
2026-04-21 03:13 -35.37344 149.54677 10901 ft 319 kts 225°
2026-04-21 03:13 -35.38863 149.52698 10379 ft 320 kts 225°
2026-04-21 03:13 -35.40364 149.50740 10172 ft 309 kts 225°
2026-04-21 03:14 -35.41810 149.48851 10041 ft 297 kts 225°
2026-04-21 03:14 -35.43214 149.47015 9727 ft 292 kts 225°
2026-04-21 03:14 -35.44593 149.45215 9340 ft 290 kts 225°
2026-04-21 03:14 -35.45969 149.43417 8997 ft 287 kts 225°
2026-04-21 03:15 -35.47332 149.41635 8640 ft 285 kts 224°
2026-04-21 03:15 -35.48671 149.39883 8276 ft 282 kts 224°
2026-04-21 03:15 -35.50017 149.38123 7920 ft 280 kts 225°
2026-04-21 03:15 -35.51333 149.36401 7602 ft 276 kts 225°
2026-04-21 03:16 -35.52635 149.34694 7278 ft 274 kts 225°
2026-04-21 03:16 -35.53936 149.32987 6939 ft 271 kts 225°
2026-04-21 03:16 -35.55048 149.31117 6593 ft 272 kts 243°
2026-04-21 03:16 -35.55572 149.28922 6271 ft 271 kts 259°
2026-04-21 03:17 -35.55824 149.26680 6205 ft 258 kts 261°
2026-04-21 03:17 -35.56038 149.24576 6171 ft 244 kts 261°
2026-04-21 03:17 -35.56141 149.22542 6123 ft 232 kts 278°
2026-04-21 03:17 -35.55503 149.20842 6080 ft 216 kts 310°
2026-04-21 03:18 -35.54279 149.19846 5816 ft 209 kts 340°
2026-04-21 03:18 -35.52892 149.19481 5667 ft 196 kts 356°
2026-04-21 03:18 -35.51586 149.19411 5598 ft 179 kts
2026-04-21 03:18 -35.50396 149.19420 5465 ft 169 kts
2026-04-21 03:19 -35.49223 149.19440 5257 ft 167 kts
2026-04-21 03:19 -35.48064 149.19444 5022 ft 167 kts
2026-04-21 03:19 -35.46906 149.19441 4793 ft 166 kts
2026-04-21 03:19 -35.45744 149.19441 4569 ft 166 kts
2026-04-21 03:20 -35.44601 149.19441 4349 ft 159 kts
2026-04-21 03:20 -35.43527 149.19441 4124 ft 151 kts
2026-04-21 03:20 -35.42479 149.19441 3937 ft 151 kts
2026-04-21 03:20 -35.41426 149.19441 3752 ft 150 kts
2026-04-21 03:21 -35.40388 149.19441 3566 ft 150 kts
2026-04-21 03:21 -35.39341 149.19441 3377 ft 149 kts
2026-04-21 03:21 -35.38314 149.19441 3192 ft 148 kts
2026-04-21 03:21 -35.37278 149.19441 2992 ft 148 kts
2026-04-21 03:22 -35.36259 149.19441 2804 ft 146 kts
2026-04-21 03:22 -35.35228 149.19441 2605 ft 147 kts
2026-04-21 03:22 -35.34209 149.19441 2416 ft 145 kts
2026-04-21 03:22 -35.33191 149.19443 2228 ft 147 kts
2026-04-21 03:23 -35.32161 149.19443 2037 ft 147 kts
2026-04-21 03:23 -35.31148 149.19446 1878 ft 141 kts
2026-04-21 03:23 -35.30459 149.19452 1878 ft 58 kts 359°
2026-04-21 03:23 -35.30219 149.19440 1879 ft 21 kts 339°
2026-04-21 03:24 -35.30161 149.19292 1875 ft 17 kts 255°
2026-04-21 03:24 -35.30264 149.19240 1874 ft 17 kts 180°
2026-04-21 03:24 -35.30384 149.19240 1874 ft 17 kts 180°
2026-04-21 03:24 -35.30505 149.19240 1874 ft 17 kts 180°
2026-04-21 03:25 -35.30623 149.19240 1874 ft 17 kts 180°
2026-04-21 03:25 -35.30738 149.19238 1874 ft 15 kts 181°
2026-04-21 03:25 -35.30787 149.19226 1874 ft 3 kts 239°
2026-04-21 03:25 -35.30795 149.19180 1873 ft 7 kts 266°
2026-04-21 03:26 -35.30796 149.19145 1872 ft 0 kts 269°